Location: Moscow Census Designated Place
(39.5390°N, 79.0086°W)
Time: 23:46:20
(UTC+00:00)

Daily predictions for brighter satellites

Satellite Brightness Start Highest point End
(mag) Time Altitude Azimuth Time Altitude Azimuth Time Altitude Azimuth
ARIANE 6 FM1 Upper Stage 2.7 22:30:46 10° SW 22:34:49 81° NW 22:38:49 10° NE
SJ-12 4.1 22:31:43 10° SE 22:35:20 43° ENE 22:38:57 10° N
Meteor 1-21 Rocket 4.3 22:30:18 10° N 22:35:52 86° W 22:41:24 10° S
Cosmos 1606 2.0 22:34:06 10° S 22:36:43 48° E 22:39:21 10° NNE
Cosmos 1818 3.9 22:32:18 10° NW 22:37:43 73° WSW 22:43:06 10° SSE
IGS 5A 3.7 22:34:20 10° S 22:38:17 72° WSW 22:42:17 10° NNW
SAR-Lupe-4 3.5 22:35:58 10° SSE 22:39:30 68° ENE 22:43:05 10° N
Cosmos 1378 Rocket 3.5 22:35:13 10° N 22:39:33 77° E 22:43:51 10° S
SPOT 1/Viking Rocket 4.5 22:37:53 10° ESE 22:42:02 25° ENE 22:46:12 10° NNE
ARIANE 5 R/B 2.4 22:39:17 10° SSE 22:44:13 69° ENE 22:49:11 10° N
Cosmos 1844 Rocket 3.1 22:42:09 10° SSW 22:47:40 65° WNW 22:53:13 10° NNE
Tiangong -1.9 22:46:22 10° W 22:49:30 60° N 22:52:14 13° ENE
Cosmos 2100 Rocket 4.1 22:45:22 10° S 22:51:36 83° W 22:57:49 10° N
SWARM C 4.5 22:51:11 10° N 22:54:28 62° E 22:57:45 10° S
SWARM A 4.3 22:51:19 10° N 22:54:34 50° E 22:57:47 10° SSE
SKYMED 2 4.1 22:52:00 10° NNE 22:56:05 38° E 23:00:07 10° SSE
SL-4 R/B 3.8 22:55:47 10° NNW 22:57:37 14° NNE 22:59:21 10° NE
Cosmos 1816 Rocket 4.5 22:51:29 10° N 22:57:49 70° E 23:04:02 10° SSE
COSMO-SKYMED 1 3.4 22:54:21 10° NE 22:57:54 27° E 23:01:24 10° SSE
Cosmos 1833 Rocket 4.1 22:56:32 10° N 23:00:18 18° NE 23:02:37 14° E
SMAP 3.5 22:55:57 10° S 23:00:34 67° WSW 23:05:13 10° NNW
Cosmos 1908 Rocket 3.5 22:56:29 10° S 23:00:50 70° E 23:05:13 10° NNE
Cosmos 1867 3.9 22:56:56 10° SW 23:02:20 69° WNW 23:07:47 10° NNE
Cosmos 1300 Rocket 3.9 23:01:55 10° SSE 23:06:04 42° E 23:10:13 10° NNE
Iridium 4 Rocket 4.1 23:02:28 10° S 23:08:02 66° W 23:13:14 10° N
Cosmos 1975 Rocket 4.2 23:06:48 10° NNE 23:10:05 21° ENE 23:13:00 12° ESE
Cosmos 1603 3.8 23:05:09 10° NNW 23:10:52 84° WSW 23:16:30 10° SSE
Cosmos 2221 Rocket 3.5 23:06:51 10° N 23:11:22 78° E 23:15:49 10° S
Delta 2 Rocket 4.0 23:09:08 10° WSW 23:12:52 39° S 23:15:15 19° ESE
Cosmos 1441 Rocket 3.3 23:12:00 10° N 23:15:06 35° ENE 23:18:12 10° SE
Landsat 7 4.1 23:10:49 10° S 23:15:26 68° W 23:20:05 10° NNW
BREEZE-M DEB (TANK) 2.4 23:15:05 10° SW 23:17:21 66° SE 23:19:54 21° ENE
Cosmos 1302 Rocket 4.4 23:15:38 10° NNW 23:20:48 65° WSW 23:25:58 10° S
Cosmos 1725 Rocket 4.2 23:16:59 10° S 23:23:13 78° W 23:29:31 10° N
Spot 4 Rocket 4.1 23:19:13 10° SSE 23:24:09 54° ENE 23:29:07 10° N
Cosmos 2084 Rocket 4.3 23:24:28 10° S 23:28:03 28° ESE 23:28:27 27° ESE
NOSS 3-4 (A) 3.9 23:23:01 10° NNW 23:29:56 64° NE 23:38:02 10° SE
NOSS 3-4 (C) 3.9 23:23:05 10° NNW 23:30:01 63° NE 23:38:05 10° SE
Cosmos 2233 Rocket 4.0 23:28:26 10° S 23:34:42 88° E 23:41:02 10° N
SJ-7 4.0 23:32:11 10° SSE 23:35:50 64° ENE 23:39:29 10° N
PSLV R/B 3.3 23:34:20 10° SSE 23:38:22 61° ENE 23:42:23 10° N
Cosmos 1992 Rocket 4.0 23:34:10 10° NNW 23:39:22 83° WSW 23:44:33 10° SSE
Helios 1A Rocket 2.8 23:38:53 10° N 23:42:14 64° WNW 23:45:35 10° SSW
NOAA 6 4.1 23:38:43 10° SSE 23:43:41 52° ENE 23:48:41 10° N
Cosmos 1269 Rocket 3.9 23:40:35 10° S 23:45:47 69° ESE 23:49:42 18° NNE
Cosmos 2278 Rocket 3.9 23:41:40 10° SSE 23:43:17 16° SE 23:43:17 16° SE
NOAA 15 4.5 23:40:51 10° SSE 23:46:07 81° ENE 23:51:26 10° N
Resurs 1-3 3.4 23:44:10 10° SSE 23:48:26 75° ENE 23:52:44 10° N
Tsikada Rocket 4.1 23:44:49 10° N 23:51:16 83° W 23:57:39 10° S
ATLAS CENTAUR R/B 2.2 23:50:40 10° WSW 23:53:54 37° NW 23:55:18 25° N
CZ-4C R/B 3.7 23:50:35 10° W 23:54:07 24° NW 23:58:22 10° NNE
